Location: Joplin, MO
(37.0842°N, 94.5133°W)
Time: 09:10:06
(UTC+02:00)

Transit 2A - Pass Details

Date: 01 April 2023
Orbit: 591 x 964 km, 66.7° (Epoch: 03 June)

Event Time Altitude Azimuth Distance (km) Brightness Sun altitude
Exits shadow 11:12:34 53° 58° (ENE) 1,018 6.8 -32.5°
Drops below altitude 10° 11:17:13 10° 33° (NNE) 2,542 9.4 -31.8°
Sets 11:19:51 0° 31° (NNE) 3,534 10.4 -31.4°
